Home   Weather   Tau   Past weeks

Flag for Norway Past Weather in Tau, Norway — Yesterday and Last 2 Weeks

Now
46 °F

Passing clouds.


Feels Like: 43 °F
Forecast: 37 / 42 °F
Wind: 7 mph from Southwest

Location: Stavanger / Sola

Current Time: Dec 10, 2016 at 6:18:07 am

Latest Report: Dec 10, 2016 at 4:20 am


Visibility: 3 mi

Pressure: 29.77 "Hg

Humidity: 100%

Dew Point: 46 °F

Location of TauLocation

Past Weather in Tau — Graph

°F

Tau Temperature Yesterday

Maximum temperature yesterday: 46 °F (at 1:50 am)
Minimum temperature yesterday: 43 °F (at 12:20 am)
Average temperature yesterday: 46 °F

High & Low Weather Summary for the Past Weeks

 TemperatureHumidityPressure
High50 °F (Dec 8, 1:50 am)100% (Nov 25, 8:50 pm)30.51 "Hg (Nov 25, 8:50 pm)
Low25 °F (Nov 28, 4:50 am)61% (Nov 26, 3:50 pm)29.74 "Hg (Dec 8, 12:50 am)
Average41 °F86%30.13 "Hg
* Reported Nov 25 4:50 am — Dec 10 4:20 am, Tau, Weather by CustomWeather, © 2016

Note: Actual official high and low records may vary slightly from our data, if they occured in-between our weather recording intervals... More about our weather records

Advertising

Tau Weather History for the Previous 24 Hours

Scroll right to see more
 ConditionsComfort  
Time TempWeatherWind HumidityBarometerVisibility
4:20 am
Sat, Dec 10
46 °FPassing clouds.7 mph100%29.77 "Hg3 mi
3:50 am46 °FFog.5 mph100%29.77 "Hg1 mi
2:50 am46 °FFog.5 mph100%29.80 "Hg1 mi
1:50 am46 °FFog.6 mph100%29.80 "Hg0 mi
12:50 am46 °FFog.2 mph100%29.83 "Hg0 mi
12:20 am46 °FDrizzle. Fog.3 mph100%29.83 "Hg0 mi
11:50 pm
Fri, Dec 9
46 °FFog.6 mph100%29.83 "Hg1 mi
10:50 pm46 °FFog.7 mph100%29.80 "Hg1 mi
10:20 pm46 °FDrizzle. Fog.8 mph100%29.80 "Hg1 mi
9:50 pm46 °FDrizzle. Fog.10 mph100%29.80 "Hg3 mi
9:20 pm46 °FDrizzle. Mostly cloudy.9 mph100%29.80 "Hg2 mi
8:50 pm46 °FDrizzle. Mostly cloudy.10 mph100%29.80 "Hg3 mi
8:20 pm46 °FPartly cloudy.10 mph93%29.83 "Hg2 mi
7:50 pm46 °FPartly cloudy.10 mph93%29.83 "Hg2 mi
7:20 pm46 °FDrizzle. Overcast.12 mph93%29.83 "Hg2 mi
6:50 pm45 °FDrizzle. Overcast.13 mph100%29.86 "Hg1 mi
6:20 pm45 °FPartly cloudy.13 mph100%29.86 "Hg2 mi
5:50 pm45 °FPartly cloudy.9 mph100%29.89 "Hg2 mi
5:20 pm45 °FPartly cloudy.9 mph93%29.89 "Hg2 mi
4:50 pm45 °FDrizzle. Fog.9 mph93%29.92 "Hg3 mi
4:20 pm45 °FDrizzle. Fog.7 mph93%29.92 "Hg3 mi
3:50 pm45 °FPassing clouds.7 mph100%29.95 "Hg4 mi
3:20 pm45 °FPartly sunny.8 mph100%29.95 "Hg4 mi
2:50 pm46 °FMostly cloudy.7 mph93%29.95 "Hg4 mi
2:20 pm45 °FDrizzle. Broken clouds.5 mph100%29.95 "Hg5 mi
1:50 pm46 °FPartly sunny.6 mph93%29.95 "Hg5 mi
1:20 pm46 °FPartly sunny.5 mph93%29.95 "Hg5 mi
12:50 pm46 °FPartly sunny.5 mph93%29.98 "Hg5 mi
12:20 pm46 °FPartly sunny.3 mph100%29.98 "Hg6 mi
11:50 am46 °FPartly sunny.2 mph93%29.98 "Hg6 mi
11:20 am46 °FPartly sunny.2 mph93%29.98 "Hg5 mi
10:50 am46 °FPartly sunny.2 mph93%29.98 "Hg5 mi
10:20 am46 °FPartly sunny.1 mph93%30.01 "Hg5 mi
9:50 am46 °FDrizzle. Broken clouds.3 mph93%30.01 "Hg5 mi
9:20 am46 °FDrizzle. Broken clouds.6 mph93%29.98 "Hg4 mi
8:50 am46 °FDrizzle. Fog.8 mph93%29.98 "Hg3 mi
8:20 am46 °FDrizzle. Dense fog.7 mph93%29.98 "Hg2 mi
7:50 am46 °FDrizzle. Dense fog.3 mph93%29.98 "Hg2 mi
7:20 am46 °FDrizzle. Fog.10 mph93%29.98 "Hg2 mi
6:50 am46 °FPartly cloudy.8 mph93%29.98 "Hg5 mi
6:20 am46 °FPartly cloudy.8 mph93%29.98 "Hg6 mi
Weather by CustomWeather, © 2016

See weather overviewHow to use our weather pages